Regional Weather Roundup
Issued by NWS Albany, NY

Home | Current Version | Previous Version | Text Only | Print | Product List | Glossary On
Versions: 1 2 3 4 5 6 7 8 9 10 11 12 13 14 15 16 17 18 19 20 21 22 23 24 25 26 27
000
ASUS41 KALY 240510
RWRALY

NEW YORK STATE HOURLY WEATHER ROUNDUP
NATIONAL WEATHER SERVICE ALBANY NY
100 AM EDT TUE OCT 24 2017

NOTE: "FAIR" INDICATES FEW OR NO CLOUDS BELOW 12,000 FEET WITH NO
SIGNIFICANT WEATHER AND/OR NO OBSTRUCTIONS TO VISIBILITY.

NYZ032-033-038>043-046>054-057>066-NYZ062>081-082-084-240600-
EAST


CITY           SKY/WX    TMP DP  RH WIND       PRES   REMARKS
ALBANY         CLOUDY    69  60  73 S12       29.94F
GLENS FALLS    CLOUDY    66  58  75 SE3       29.96F
POUGHKEEPSIE   CLOUDY    70  63  78 SE8       29.95F
NEWBURGH       LGT RAIN  70  64  83 S13       29.97F
MONTGOMERY     CLOUDY    70  63  78 S15G25    29.93F
WHITE PLAINS   CLOUDY    69  64  84 SE15G25   29.99F
ISLIP          CLOUDY    68  64  87 SE18G24   30.00F
NEW YORK CITY  CLOUDY    69  64  84 SE21      29.96F
CENTRAL PARK   CLOUDY    69  65  86 S13G20    30.00F
$$

NYZ005>009-017-018-044>046-055-056-240600-
CENTRAL


CITY           SKY/WX    TMP DP  RH WIND       PRES   REMARKS
FULTON         CLOUDY    71  56  58 SE12G18   29.73F
SYRACUSE       CLOUDY    69  57  65 SE15G26   29.75F
ROME           CLOUDY    66  58  75 E14       29.83F
ELMIRA         CLOUDY    69  60  73 S9G24     29.71F
BINGHAMTON     CLOUDY    65  57  75 SE23G36   29.79F
MONTICELLO     CLOUDY    65  61  87 SE16G24   29.95F
$$

NYZ026>034-041>043-087-240600-
NORTH


CITY           SKY/WX    TMP DP  RH WIND       PRES   REMARKS
WATERTOWN      CLOUDY    70  57  63 S14G22    29.73F
FORT DRUM      NOT AVBL
OGDENSBURG     FAIR      68  57  67 S5        29.80F
MASSENA        CLOUDY    63  57  81 E8        29.84F
SARANAC LAKE   CLOUDY    64  55  72 S15G26    29.90F
PLATTSBURGH    CLOUDY    66  55  67 S17G26    29.91F
$$

NYZ001>004-010>016-019>021-085-240600-
WEST


CITY           SKY/WX    TMP DP  RH WIND       PRES   REMARKS
NIAGARA FALLS  CLOUDY    61  55  81 S7        29.58F
BUFFALO        RAIN      60  56  86 SE7       29.58F
DUNKIRK        RAIN      57  55  93 SE12      29.56F
JAMESTOWN      CLOUDY    53  53 100 S12G17    29.61F
WELLSVILLE     LGT RAIN  64  58  80 SE25G35   29.64F
ROCHESTER      CLOUDY    72  57  59 SE10      29.61F
PENN YAN       LGT RAIN  69  56  62 SE14G28   29.69F
$$

             KEY
       WCI = WIND CHILL INDEX
       VSB = VISIBILITY
       HX  = HEAT INDEX
$$




USA.gov is the U.S. government's official web portal to all federal, state and local government web resources and services.